Hourly Weather Acheng

Today, 7 March, Sunday

Time Temperature Precipitation Wind Pressure Humidity
00:00 -21°C° 0 mm 3 mps 760 mmHg 87%
01:00 -22°C° 0 mm 4 mps 759 mmHg 86%
02:00 -22°C° 0 mm 4 mps 759 mmHg 85%
03:00 -22°C° 0 mm 4 mps 758 mmHg 84%
04:00 -22°C° 0 mm 4 mps 758 mmHg 82%
05:00 -20°C° 0 mm 4 mps 757 mmHg 81%
06:00 -20°C° 0 mm 5 mps 757 mmHg 79%
07:00 -19°C° 0 mm 5 mps 757 mmHg 76%
08:00 -17°C° 0 mm 5 mps 756 mmHg 73%
09:00 -15°C° 0 mm 6 mps 756 mmHg 73%
10:00 -12°C° 0 mm 6 mps 756 mmHg 74%
11:00 -11°C° 0 mm 6 mps 756 mmHg 74%
12:00 -10°C° 0 mm 6 mps 755 mmHg 76%
13:00 -8°C° 0 mm 5 mps 755 mmHg 78%
14:00 -7°C° 0 mm 5 mps 755 mmHg 81%
15:00 -8°C° 0 mm 4 mps 755 mmHg 84%
16:00 -8°C° 0 mm 3 mps 755 mmHg 87%
17:00 -7°C° 0 mm 2 mps 755 mmHg 90%
18:00 -8°C° 0 mm 2 mps 755 mmHg 89%
19:00 -9°C° 0 mm 2 mps 756 mmHg 89%
20:00 -10°C° 0 mm 2 mps 756 mmHg 89%
21:00 -10°C° 0 mm 2 mps 756 mmHg 88%
22:00 -12°C° 0 mm 2 mps 756 mmHg 87%
23:00 -12°C° 0 mm 2 mps 756 mmHg 86%

Tomorrow, 8 March, Monday

Time Temperature Precipitation Wind Pressure Humidity
00:00 -12°C° 0 mm 2 mps 756 mmHg 85%
01:00 -13°C° 0 mm 2 mps 756 mmHg 85%
02:00 -13°C° 0 mm 2 mps 756 mmHg 84%
03:00 -14°C° 0 mm 3 mps 756 mmHg 83%
04:00 -14°C° 0 mm 3 mps 756 mmHg 83%
05:00 -14°C° 0 mm 3 mps 756 mmHg 82%
06:00 -13°C° 0 mm 3 mps 756 mmHg 81%
07:00 -12°C° 0 mm 3 mps 756 mmHg 79%
08:00 -10°C° 0 mm 4 mps 756 mmHg 77%
09:00 -8°C° 0 mm 4 mps 756 mmHg 77%
10:00 -7°C° 0 mm 4 mps 755 mmHg 76%
11:00 -4°C° 0 mm 4 mps 755 mmHg 76%
12:00 -3°C° 0 mm 4 mps 754 mmHg 77%
13:00 -2°C° 0 mm 4 mps 754 mmHg 79%
14:00 -2°C° 0 mm 5 mps 753 mmHg 80%
15:00 -2°C° 0 mm 4 mps 753 mmHg 80%
16:00 -3°C° 0 mm 4 mps 752 mmHg 80%
17:00 -3°C° 0 mm 4 mps 752 mmHg 81%
18:00 -4°C° 0 mm 4 mps 751 mmHg 78%
19:00 -5°C° 0 mm 4 mps 751 mmHg 76%
20:00 -6°C° 0 mm 5 mps 751 mmHg 74%
21:00 -6°C° 0 mm 5 mps 751 mmHg 73%
22:00 -7°C° 0 mm 5 mps 750 mmHg 72%
23:00 -7°C° 0 mm 5 mps 749 mmHg 71%

Day after tomorrow, 9 March, Tuesday

Time Temperature Precipitation Wind Pressure Humidity
00:00 -7°C° 0 mm 5 mps 749 mmHg 75%
01:00 -6°C° 0 mm 5 mps 749 mmHg 78%
02:00 -6°C° 0 mm 5 mps 749 mmHg 81%
03:00 -7°C° 0 mm 5 mps 749 mmHg 83%
04:00 -7°C° 0 mm 5 mps 749 mmHg 86%
05:00 -7°C° 0 mm 4 mps 749 mmHg 88%
06:00 -7°C° 0 mm 4 mps 749 mmHg 87%
07:00 -7°C° 0 mm 4 mps 750 mmHg 85%
08:00 -5°C° 0 mm 4 mps 751 mmHg 84%
09:00 -5°C° 0 mm 5 mps 751 mmHg 78%
10:00 -4°C° 0 mm 7 mps 751 mmHg 72%
11:00 -4°C° 0 mm 8 mps 752 mmHg 66%
12:00 -4°C° 0 mm 8 mps 752 mmHg 66%
13:00 -4°C° 0 mm 8 mps 753 mmHg 66%
14:00 -4°C° 0 mm 7 mps 754 mmHg 65%
15:00 -5°C° 0 mm 6 mps 754 mmHg 71%
16:00 -5°C° 0 mm 4 mps 755 mmHg 76%
17:00 -6°C° 0 mm 3 mps 755 mmHg 81%
18:00 -6°C° 0 mm 2 mps 756 mmHg 82%
19:00 -7°C° 0 mm 2 mps 757 mmHg 82%
20:00 -8°C° 0 mm 1 mps 758 mmHg 82%
21:00 -9°C° 0 mm 2 mps 758 mmHg 81%
22:00 -10°C° 0 mm 2 mps 758 mmHg 80%
23:00 -10°C° 0 mm 2 mps 758 mmHg 79%

10 March, Wednesday

Time Temperature Precipitation Wind Pressure Humidity
00:00 -10°C° 0 mm 2 mps 759 mmHg 79%
01:00 -12°C° 0 mm 2 mps 759 mmHg 78%
02:00 -12°C° 0 mm 2 mps 759 mmHg 78%
03:00 -12°C° 0 mm 2 mps 758 mmHg 78%
04:00 -13°C° 0 mm 3 mps 758 mmHg 78%
05:00 -13°C° 0 mm 3 mps 758 mmHg 78%
06:00 -12°C° 0 mm 3 mps 758 mmHg 78%
07:00 -10°C° 0 mm 4 mps 758 mmHg 78%
08:00 -9°C° 0 mm 4 mps 758 mmHg 79%
09:00 -7°C° 0 mm 4 mps 757 mmHg 76%
10:00 -4°C° 0 mm 4 mps 756 mmHg 73%
11:00 -4°C° 0 mm 5 mps 756 mmHg 70%
12:00 -2°C° 0 mm 4 mps 755 mmHg 71%
13:00 -2°C° 0 mm 4 mps 754 mmHg 73%
14:00 -1°C° 0 mm 4 mps 753 mmHg 74%
15:00 -1°C° 0 mm 4 mps 753 mmHg 75%
16:00 -2°C° 0 mm 4 mps 752 mmHg 76%
17:00 -2°C° 0 mm 4 mps 752 mmHg 77%
18:00 -3°C° 0 mm 4 mps 752 mmHg 78%
19:00 -4°C° 0 mm 3 mps 752 mmHg 79%
20:00 -5°C° 0 mm 3 mps 752 mmHg 79%
21:00 -5°C° 0 mm 3 mps 752 mmHg 80%
22:00 -5°C° 0 mm 2 mps 753 mmHg 80%
23:00 -5°C° 0 mm 2 mps 753 mmHg 80%

11 March, Thursday

Time Temperature Precipitation Wind Pressure Humidity
00:00 -3°C° 0 mm 1 mps 753 mmHg 80%
01:00 -4°C° 0 mm 1 mps 753 mmHg 79%
02:00 -6°C° 0 mm 0 mps 754 mmHg 78%
03:00 -6°C° 0 mm 1 mps 754 mmHg 79%
04:00 -6°C° 0 mm 1 mps 755 mmHg 79%
05:00 -7°C° 0 mm 1 mps 755 mmHg 79%
06:00 -6°C° 0 mm 1 mps 756 mmHg 79%
07:00 -3°C° 0 mm 1 mps 756 mmHg 79%
08:00 -2°C° 0 mm 1 mps 756 mmHg 79%
09:00 -1°C° 0 mm 1 mps 756 mmHg 83%
10:00 0°C° 0 mm 1 mps 757 mmHg 87%
11:00 +1°C° 0 mm 1 mps 757 mmHg 91%
12:00 -1°C° 0 mm 2 mps 756 mmHg 92%
13:00 +1°C° 0 mm 2 mps 756 mmHg 93%
14:00 +1°C° 0 mm 2 mps 756 mmHg 94%
15:00 -1°C° 0 mm 2 mps 756 mmHg 94%
16:00 -2°C° 0 mm 2 mps 756 mmHg 93%
17:00 -3°C° 0 mm 2 mps 756 mmHg 93%
18:00 -3°C° 0 mm 2 mps 756 mmHg 93%
19:00 -4°C° 0 mm 2 mps 757 mmHg 93%
20:00 -5°C° 0 mm 2 mps 757 mmHg 93%
21:00 -5°C° 0 mm 2 mps 757 mmHg 92%
22:00 -5°C° 0 mm 2 mps 757 mmHg 90%
23:00 -6°C° 0 mm 2 mps 758 mmHg 89%

12 March, Friday

Time Temperature Precipitation Wind Pressure Humidity
00:00 -6°C° 0 mm 2 mps 758 mmHg 88%
01:00 -7°C° 0 mm 2 mps 758 mmHg 87%
02:00 -7°C° 0 mm 2 mps 758 mmHg 86%
03:00 -7°C° 0 mm 2 mps 758 mmHg 86%
04:00 -7°C° 0 mm 2 mps 758 mmHg 86%
05:00 -7°C° 0 mm 2 mps 758 mmHg 86%
06:00 -6°C° 0 mm 2 mps 759 mmHg 85%
07:00 -3°C° 0 mm 1 mps 759 mmHg 84%
08:00 -2°C° 0 mm 1 mps 759 mmHg 84%
09:00 -1°C° 0 mm 1 mps 759 mmHg 85%
10:00 0°C° 0 mm 1 mps 759 mmHg 87%
11:00 +2°C° 0 mm 1 mps 759 mmHg 89%
12:00 +2°C° 0 mm 1 mps 759 mmHg 89%
13:00 +2°C° 0 mm 1 mps 758 mmHg 90%
14:00 +2°C° 0 mm 2 mps 758 mmHg 90%
15:00 +2°C° 0 mm 1 mps 758 mmHg 91%
16:00 +1°C° 0 mm 1 mps 758 mmHg 92%
17:00 0°C° 0 mm 1 mps 757 mmHg 93%
18:00 -1°C° 0 mm 1 mps 757 mmHg 92%
19:00 -1°C° 0 mm 1 mps 757 mmHg 91%
20:00 -3°C° 0 mm 0 mps 757 mmHg 90%
21:00 -3°C° 0 mm 0 mps 757 mmHg 88%
22:00 -3°C° 0 mm 0 mps 757 mmHg 85%
23:00 -4°C° 0 mm 0 mps 757 mmHg 82%
Show more